• In Belgium
  • List of Countries
  • For 7 days
  • Water Temperature
  • Satellite Maps
  • Weather Map
  • Weather Widgets
  • user-avatar
    Login

    Hourly Weather Tabarka

    Today, 16 August, Thursday

    Time Temperature Precipitation Wind Pressure Humidity
    00:00 +21°C° 0 mm 2 mps 712 mmHg 72%
    01:00 +21°C° 0 mm 2 mps 712 mmHg 74%
    02:00 +21°C° 0 mm 2 mps 712 mmHg 74%
    03:00 +20°C° 0 mm 2 mps 712 mmHg 74%
    04:00 +20°C° 0 mm 2 mps 711 mmHg 74%
    05:00 +20°C° 0 mm 2 mps 711 mmHg 71%
    06:00 +21°C° 0 mm 2 mps 711 mmHg 67%
    07:00 +21°C° 0 mm 2 mps 711 mmHg 64%
    08:00 +24°C° 0 mm 2 mps 712 mmHg 57%
    09:00 +26°C° 0 mm 2 mps 712 mmHg 50%
    10:00 +27°C° 0 mm 1 mps 712 mmHg 44%
    11:00 +29°C° 0 mm 2 mps 712 mmHg 39%
    12:00 +30°C° 0 mm 2 mps 712 mmHg 34%
    13:00 +31°C° 0 mm 3 mps 712 mmHg 29%
    14:00 +33°C° 0 mm 3 mps 712 mmHg 29%
    15:00 +33°C° 0 mm 3 mps 711 mmHg 30%
    16:00 +33°C° 0 mm 4 mps 711 mmHg 30%
    17:00 +32°C° 0 mm 4 mps 711 mmHg 37%
    18:00 +30°C° 0 mm 3 mps 711 mmHg 43%
    19:00 +28°C° 0 mm 3 mps 711 mmHg 49%
    20:00 +27°C° 0 mm 2 mps 711 mmHg 54%
    21:00 +26°C° 0 mm 2 mps 711 mmHg 59%
    22:00 +26°C° 0 mm 1 mps 712 mmHg 64%
    23:00 +25°C° 0 mm 1 mps 712 mmHg 66%

    Tomorrow, 17 August, Friday

    Time Temperature Precipitation Wind Pressure Humidity
    00:00 +25°C° 0 mm 1 mps 712 mmHg 68%
    01:00 +24°C° 0 mm 1 mps 711 mmHg 69%
    02:00 +24°C° 0 mm 1 mps 711 mmHg 71%
    03:00 +24°C° 0 mm 1 mps 711 mmHg 72%
    04:00 +21°C° 0 mm 0 mps 711 mmHg 74%
    05:00 +22°C° 0 mm 0 mps 711 mmHg 73%
    06:00 +22°C° 0 mm 0 mps 711 mmHg 72%
    07:00 +22°C° 0 mm 0 mps 711 mmHg 71%
    08:00 +26°C° 0 mm 1 mps 712 mmHg 64%
    09:00 +27°C° 0 mm 1 mps 712 mmHg 57%
    10:00 +29°C° 0 mm 1 mps 713 mmHg 49%
    11:00 +30°C° 0 mm 2 mps 713 mmHg 45%
    12:00 +31°C° 0 mm 2 mps 713 mmHg 40%
    13:00 +32°C° 0 mm 2 mps 713 mmHg 35%
    14:00 +33°C° 0 mm 3 mps 712 mmHg 36%
    15:00 +33°C° 0 mm 4 mps 712 mmHg 36%
    16:00 +33°C° 0 mm 4 mps 712 mmHg 37%
    17:00 +32°C° 0 mm 4 mps 712 mmHg 42%
    18:00 +29°C° 0 mm 3 mps 712 mmHg 47%
    19:00 +28°C° 0 mm 3 mps 712 mmHg 52%
    20:00 +27°C° 0.2 mm 2 mps 712 mmHg 56%
    21:00 +26°C° 0.2 mm 2 mps 713 mmHg 60%
    22:00 +25°C° 0.2 mm 1 mps 713 mmHg 64%
    23:00 +24°C° 0 mm 1 mps 713 mmHg 66%

    Day after tomorrow, 18 August, Saturday

    Time Temperature Precipitation Wind Pressure Humidity
    00:00 +24°C° 0 mm 1 mps 713 mmHg 68%
    01:00 +24°C° 0 mm 1 mps 713 mmHg 70%
    02:00 +23°C° 0 mm 1 mps 712 mmHg 71%
    03:00 +23°C° 0 mm 1 mps 712 mmHg 73%
    04:00 +21°C° 0 mm 2 mps 712 mmHg 74%
    05:00 +23°C° 0 mm 2 mps 712 mmHg 73%
    06:00 +23°C° 0 mm 2 mps 713 mmHg 71%
    07:00 +23°C° 0 mm 2 mps 713 mmHg 70%
    08:00 +25°C° 0 mm 2 mps 713 mmHg 62%
    09:00 +26°C° 0 mm 2 mps 713 mmHg 54%
    10:00 +28°C° 0 mm 2 mps 714 mmHg 47%
    11:00 +29°C° 0 mm 3 mps 714 mmHg 43%
    12:00 +30°C° 0 mm 3 mps 714 mmHg 39%
    13:00 +31°C° 0 mm 3 mps 714 mmHg 36%
    14:00 +32°C° 0 mm 4 mps 714 mmHg 37%
    15:00 +32°C° 0 mm 4 mps 713 mmHg 39%
    16:00 +32°C° 0 mm 5 mps 713 mmHg 40%
    17:00 +30°C° 0 mm 4 mps 713 mmHg 45%
    18:00 +28°C° 0 mm 4 mps 713 mmHg 50%
    19:00 +27°C° 0 mm 4 mps 713 mmHg 55%
    20:00 +26°C° 0.1 mm 3 mps 714 mmHg 59%
    21:00 +25°C° 0.1 mm 2 mps 714 mmHg 62%
    22:00 +24°C° 0.1 mm 1 mps 714 mmHg 66%
    23:00 +24°C° 0.1 mm 1 mps 714 mmHg 68%

    19 August, Sunday

    Time Temperature Precipitation Wind Pressure Humidity
    00:00 +24°C° 0.1 mm 1 mps 714 mmHg 69%
    01:00 +23°C° 0.1 mm 1 mps 714 mmHg 71%
    02:00 +23°C° 0 mm 1 mps 714 mmHg 73%
    03:00 +22°C° 0 mm 1 mps 713 mmHg 76%
    04:00 +22°C° 0 mm 1 mps 713 mmHg 78%
    05:00 +22°C° 0 mm 1 mps 713 mmHg 77%
    06:00 +22°C° 0 mm 1 mps 713 mmHg 77%
    07:00 +23°C° 0 mm 1 mps 714 mmHg 76%
    08:00 +24°C° 0 mm 2 mps 714 mmHg 67%
    09:00 +26°C° 0 mm 2 mps 714 mmHg 59%
    10:00 +27°C° 0 mm 2 mps 715 mmHg 50%
    11:00 +28°C° 0 mm 3 mps 715 mmHg 46%
    12:00 +29°C° 0 mm 3 mps 714 mmHg 41%
    13:00 +32°C° 0 mm 4 mps 714 mmHg 36%
    14:00 +32°C° 0 mm 4 mps 714 mmHg 36%
    15:00 +32°C° 0 mm 5 mps 714 mmHg 37%
    16:00 +30°C° 0 mm 5 mps 714 mmHg 37%
    17:00 +29°C° 0 mm 4 mps 714 mmHg 41%
    18:00 +28°C° 0 mm 4 mps 713 mmHg 45%
    19:00 +27°C° 0 mm 3 mps 713 mmHg 50%
    20:00 +26°C° 0 mm 3 mps 713 mmHg 54%
    21:00 +25°C° 0 mm 2 mps 714 mmHg 58%
    22:00 +24°C° 0 mm 1 mps 714 mmHg 63%
    23:00 +23°C° 0 mm 1 mps 714 mmHg 64%

    20 August, Monday

    Time Temperature Precipitation Wind Pressure Humidity
    00:00 +23°C° 0 mm 1 mps 713 mmHg 66%
    01:00 +23°C° 0 mm 1 mps 713 mmHg 68%
    02:00 +21°C° 0 mm 2 mps 713 mmHg 69%
    03:00 +21°C° 0 mm 2 mps 712 mmHg 71%
    04:00 +20°C° 0 mm 2 mps 712 mmHg 72%
    05:00 +21°C° 0 mm 2 mps 712 mmHg 71%
    06:00 +21°C° 0 mm 2 mps 712 mmHg 69%
    07:00 +21°C° 0 mm 2 mps 712 mmHg 67%
    08:00 +24°C° 0 mm 2 mps 713 mmHg 60%
    09:00 +25°C° 0 mm 3 mps 713 mmHg 53%
    10:00 +27°C° 0 mm 3 mps 713 mmHg 47%
    11:00 +28°C° 0 mm 3 mps 713 mmHg 43%
    12:00 +29°C° 0 mm 4 mps 713 mmHg 39%
    13:00 +30°C° 0 mm 4 mps 713 mmHg 36%
    14:00 +30°C° 0 mm 5 mps 713 mmHg 37%
    15:00 +30°C° 0 mm 5 mps 713 mmHg 39%
    16:00 +30°C° 0 mm 6 mps 712 mmHg 40%
    17:00 +28°C° 0.1 mm 5 mps 712 mmHg 46%
    18:00 +27°C° 0.1 mm 5 mps 712 mmHg 52%
    19:00 +26°C° 0.1 mm 5 mps 712 mmHg 58%
    20:00 +25°C° 0.1 mm 4 mps 713 mmHg 63%
    21:00 +24°C° 0.1 mm 3 mps 713 mmHg 68%
    22:00 +23°C° 0.1 mm 2 mps 713 mmHg 73%
    23:00 +23°C° 0.1 mm 2 mps 713 mmHg 75%

    21 August, Tuesday

    Time Temperature Precipitation Wind Pressure Humidity
    00:00 +21°C° 0.1 mm 2 mps 713 mmHg 77%
    01:00 +22°C° 0.1 mm 1 mps 712 mmHg 79%
    02:00 +21°C° 0.1 mm 2 mps 712 mmHg 79%
    03:00 +20°C° 0.1 mm 2 mps 712 mmHg 80%
    04:00 +20°C° 0.1 mm 2 mps 712 mmHg 80%
    05:00 +20°C° 0 mm 2 mps 712 mmHg 78%
    06:00 +22°C° 0 mm 1 mps 712 mmHg 77%
    07:00 +22°C° 0 mm 1 mps 713 mmHg 75%
    08:00 +24°C° 0 mm 1 mps 713 mmHg 67%
    09:00 +25°C° 0 mm 2 mps 713 mmHg 59%
    10:00 +27°C° 0 mm 2 mps 713 mmHg 52%
    11:00 +28°C° 0 mm 2 mps 713 mmHg 48%
    12:00 +29°C° 0 mm 2 mps 713 mmHg 44%
    13:00 +29°C° 0 mm 2 mps 713 mmHg 40%
    14:00 +29°C° 0.3 mm 3 mps 713 mmHg 41%
    15:00 +29°C° 0.3 mm 3 mps 712 mmHg 42%
    16:00 +29°C° 0.3 mm 3 mps 712 mmHg 43%
    17:00 +28°C° 0.9 mm 3 mps 712 mmHg 48%
    18:00 +27°C° 0.9 mm 3 mps 712 mmHg 53%
    19:00 +26°C° 0.9 mm 2 mps 712 mmHg 57%
    20:00 +26°C° 0.2 mm 2 mps 712 mmHg 60%
    21:00 +25°C° 0.2 mm 1 mps 712 mmHg 63%
    22:00 +24°C° 0.2 mm 1 mps 713 mmHg 66%
    23:00 +24°C° 0 mm 1 mps 712 mmHg 68%
    Show more